Other Public Products
Issued by NWS Charleston, SC

Current Version | Previous Version | Text Only | Print | Product List | Glossary Off
Versions: 1 2 3 4 5 6 7 8 9 10 11 12 13 14 15 16 17 18 19 20 21 22 23 24 25 26 27 28 29 30 31 32 33 34 35 36 37 38 39 40 41 42 43 44 45 46 47 48 49 50

234
FPUS82 KCHS 151812
OPUCHS

TEST...KCHS/KSAV Gateway Observations...TEST
National Weather Service Charleston SC
100 PM EST MON JAN 15 2018

NOTE: "fair" indicates few or no clouds below 12,000 feet with no
significant weather and/or obstructions to visibility.

SCZ050-WAZ558-NCZ071-TXZ119-213-PAZ071-DCZ001-FLZ074-172-MI076-
NYZ176-178-MAZ016-IL014-TNZ027-NJZ106-GAZ044-MD014-151900-

...Gateway Observations for Charleston International...

CITY           SKY/WX    TMP DP  RH WIND       PRES   REMARKS
Chas Airport   FAIR      43  15  32 N12       30.44F
6HR MIN TEMP:  27; 6HR MAX TEMP:  44;

Seattle        PTSUNNY   45  42  89 W5        30.05S
6HR MIN TEMP:  41; 6HR MAX TEMP:  49;

Charlotte      FAIR      34   7  32 VRB3      30.47F
6HR MIN TEMP:  18; 6HR MAX TEMP:  35;

Dallas DFW     MOSUNNY   59  44  57 S8        30.29F
6HR MIN TEMP:  38; 6HR MAX TEMP:  59;

Dallas Love    MOSUNNY   56  45  66 S12G17    30.31F
6HR MIN TEMP:  36; 6HR MAX TEMP:  56;

Philladelphia  PTSUNNY   32  18  56 NE13      30.53F WCI  22
6HR MIN TEMP:  18; 6HR MAX TEMP:  32;

Wash National  CLOUDY    30  16  56 N7        30.55F WCI  23
6HR MIN TEMP:  18; 6HR MAX TEMP:  30;

Baltimore      CLOUDY    26  17  68 NE3       30.52F
6HR MIN TEMP:  15; 6HR MAX TEMP:  27;

Miami          PTSUNNY   73  58  59 N9        30.22F
6HR MIN TEMP:  54; 6HR MAX TEMP:  73;

Detroit        LGT SNOW  20  15  81 SE8       30.27F WCI  10
6HR MIN TEMP:  16; 6HR MAX TEMP:  20; 6HR PCP:  0.04;

Newark         PTSUNNY   31  16  54 NE12      30.58F WCI  22
6HR MIN TEMP:  16; 6HR MAX TEMP:  31;

Laguardia      PTSUNNY   27  16  63 NE16      30.58F WCI  15
6HR MIN TEMP:  18; 6HR MAX TEMP:  27;

J F K          PTSUNNY   27  17  66 NE13      30.58F WCI  16
6HR MIN TEMP:  18; 6HR MAX TEMP:  27;

Boston Logan   CLOUDY    16   6  65 N14       30.64F WCI   2
6HR MIN TEMP:  12; 6HR MAX TEMP:  16; 6HR PCP: TRACE;

Ft. Lauderdale PTSUNNY   71  61  70 N10       30.21F
6HR MIN TEMP:  51; 6HR MAX TEMP:  71;

Chicago O`Hare LGT SNOW  23  19  85 W6        30.13S FOG     WCI  16
6HR MIN TEMP:  19; 6HR MAX TEMP:  23; 6HR PCP:  0.04;

Chicago Midway LGT SNOW  24  19  81 W10       30.14F FOG     WCI  14
6HR MIN TEMP:  20; 6HR MAX TEMP:  24; 6HR PCP:  0.01;

Houston Bush   MOSUNNY   64  46  52 SE13      30.35F
6HR MIN TEMP:  35; 6HR MAX TEMP:  65;

Houston Hobby  FAIR      64  47  53 S10       30.35F
6HR MIN TEMP:  42; 6HR MAX TEMP:  65;

Nashville      PTSUNNY   43  20  39 SW15G22   30.34F
6HR MIN TEMP:  23; 6HR MAX TEMP:  43;

Atlanta        FAIR      41  22  46 CALM      30.43F
6HR MIN TEMP:  26; 6HR MAX TEMP:  42;


$$

GAZ044-118-TXZ119-213-NCZ071-DCZ001-MDZ014-506-PAZ021-071-NJZ106-
NYZ176-178-MAZ106-OHZ011-021-055-MIZ076-KYZ091-ILZ014-INZ047-
MNZ060-ONZ431-151900-

...Gateway Observations for Savannah International...

CITY           SKY/WX    TMP DP  RH WIND       PRES   REMARKS
Savannah Arpt  FAIR      48  18  30 NW8       30.45F
6HR MIN TEMP:  28; 6HR MAX TEMP:  48;

Atlanta        FAIR      41  22  46 CALM      30.43F
6HR MIN TEMP:  26; 6HR MAX TEMP:  42;

Charlotte      FAIR      34   7  32 VRB3      30.47F
6HR MIN TEMP:  18; 6HR MAX TEMP:  35;

Dallas DFW     MOSUNNY   59  44  57 S8        30.29F
6HR MIN TEMP:  38; 6HR MAX TEMP:  59;

Houston Bush   MOSUNNY   64  46  52 SE13      30.35F
6HR MIN TEMP:  35; 6HR MAX TEMP:  65;

Wash National  CLOUDY    30  16  56 N7        30.55F WCI  23
6HR MIN TEMP:  18; 6HR MAX TEMP:  30;

Wash Dulles    PTSUNNY   25  14  63 CALM      30.52F
6HR MIN TEMP:  11; 6HR MAX TEMP:  25;

Baltimore      CLOUDY    26  17  68 NE3       30.52F
6HR MIN TEMP:  15; 6HR MAX TEMP:  27;

Philadelphia   PTSUNNY   32  18  56 NE13      30.53F WCI  22
6HR MIN TEMP:  18; 6HR MAX TEMP:  32;

Newark         PTSUNNY   31  16  54 NE12      30.58F WCI  22
6HR MIN TEMP:  16; 6HR MAX TEMP:  31;

Laguardia      PTSUNNY   27  16  63 NE16      30.58F WCI  15
6HR MIN TEMP:  18; 6HR MAX TEMP:  27;

J F K          PTSUNNY   27  17  66 NE13      30.58F WCI  16
6HR MIN TEMP:  18; 6HR MAX TEMP:  27;

Boston         CLOUDY    16   6  65 N14       30.64F WCI   2
6HR MIN TEMP:  12; 6HR MAX TEMP:  16; 6HR PCP: TRACE;

Pittsburg      PTSUNNY   21  16  81 SE8       30.31F WCI  11
6HR MIN TEMP:   8; 6HR MAX TEMP:  21; 6HR PCP:  0.01;

Akron          FLURRIES  22  15  75 S14       30.27F WCI   9
6HR MIN TEMP:  12; 6HR MAX TEMP:  22; 6HR PCP:  0.02;

Cleveland      CLOUDY    24  15  68 S14       30.30F WCI  12
6HR MIN TEMP:  13; 6HR MAX TEMP:  24; 6HR PCP:  0.01;

Cincinnati     LGT SNOW  28  22  78 SW10      30.21F WCI  19
6HR MIN TEMP:  18; 6HR MAX TEMP:  28; 6HR PCP: TRACE;

Columbus       LGT SNOW  22  21  94 S8        30.28F WCI  13
Detroit        LGT SNOW  20  15  81 SE8       30.27F WCI  10
6HR MIN TEMP:  16; 6HR MAX TEMP:  20; 6HR PCP:  0.04;

Chicago O`Hare LGT SNOW  23  19  85 W6        30.13S FOG     WCI  16
6HR MIN TEMP:  19; 6HR MAX TEMP:  23; 6HR PCP:  0.04;

Minneapolis    FLURRIES   4  -3  73 NW21G28   30.39S WCI -17
6HR MIN TEMP:   3; 6HR MAX TEMP:   6; 6HR PCP: TRACE;

Indianapolis   FLURRIES  23  20  88 SW14G22   30.20S WCI  11
6HR MIN TEMP:  18; 6HR MAX TEMP:  23; 6HR PCP:  0.06;

Toronto Canada CLOUDY    18   7  62 E10G17    30.41F WCI   6

$$




USA.gov is the U.S. government's official web portal to all federal, state and local government web resources and services.